User: anonymous   Login
Location: Caltech
(34.1382°N, 118.1253°W)
Time: 21:59:32
(UTC-08:00)
Language:

Cosmos 1975 - Orbit

View from above orbital plane
View from above orbital plane
View from above satellite
View from above satellite

Ground track
Ground track

The orbit data is extracted from the following two-line orbital elements,

1 19573U 88093A   17058.17030863  .00000968  00000-0  67885-4 0  9993
2 19573  82.5181  91.9214 0013414 318.4710  41.5496 15.04053289543272
Epoch (UTC): 27 February 2017 04:05:14
Eccentricity: 0.0013414
inclination: 82.5181°
perigee height: 545 km
apogee height: 564 km
right ascension of ascending node: 91.9214°
argument of perigee: 318.4710°
revolutions per day: 15.04053289
mean anomaly at epoch: 41.5496°
orbit number at epoch: 54327

The dashed part of the orbit path shows where the satellite is in the earth's shadow,  

DLR